RTU MIREA 1 (RS51S)

Last updated on Wed Sep 09 2026 00:03:15 GMT+0000 (Coordinated Universal Time)

1 61785U 24199BC 26251.59254649 .00109755 00000+0 82848-3 0 9991 2 61785 97.2759 131.2604 0003635 352.2127 7.9080 15.72127189147520
UTC large
Height (km)
Speed (km/s)
/
Latitude / Longitude
Inclination (degrees)
Orbital Period (minutes)
Azimuth
Elevation
Range (km)
Doppler Factor

Next 0 passes for location: London (51.5072 / 0.1276)

No passes found over London.
RTU MIREA 1 (RS51S)